Location: Amsterdam
(30.7274°N, 84.4357°W)
Time: 17:17:36
(UTC+00:00)

A-11 Canister half - All Passes

Search period start: 16 February 2026 00:00
Search period end: 26 February 2026 00:00
Orbit: 1512 x 1687 km, 47.2° (Epoch: 16 February)

Date Brightness Start Highest point End Pass type
(mag) Time Alt. Az. Time Alt. Az. Time Alt. Az.
16 Feb - 01:23:34 10° SSW 01:33:28 59° SE 01:43:16 10° ENE visible
16 Feb - 03:28:53 10° WSW 03:38:43 51° NNW 03:48:21 10° NE visible
16 Feb - 05:37:23 10° WNW 05:45:54 30° N 05:54:11 10° NE night (unlit)
16 Feb - 07:44:26 10° NW 07:53:28 39° NNE 08:02:11 10° E visible
16 Feb - 09:49:34 10° NW 09:59:15 85° SW 10:08:36 10° SE visible
16 Feb - 11:56:41 10° W 12:03:08 21° SW 12:09:30 10° S visible
16 Feb - 23:05:36 10° SE 23:06:44 10° ESE 23:07:52 10° ESE daylight
17 Feb - 01:00:37 10° SSW 01:10:25 55° SE 01:20:08 10° ENE visible
17 Feb - 03:05:40 10° WSW 03:15:34 54° NNW 03:25:18 10° NE visible
17 Feb - 05:14:06 10° WNW 05:22:40 30° N 05:31:01 10° NE visible
17 Feb - 07:21:18 10° NW 07:30:18 38° NNE 07:38:58 10° E visible
17 Feb - 09:26:28 10° NW 09:36:13 90° SW 09:45:35 10° SE visible
17 Feb - 11:33:18 10° WNW 11:40:10 23° SW 11:46:57 10° S visible
18 Feb - 00:37:41 10° SSW 00:47:22 51° SE 00:57:00 10° ENE visible
18 Feb - 02:42:27 10° WSW 02:52:25 57° NNW 03:02:15 10° NE visible
18 Feb - 04:50:48 10° WNW 04:59:26 31° N 05:07:51 10° NE visible
18 Feb - 06:58:09 10° NW 07:07:07 37° NNE 07:15:45 10° E visible
18 Feb - 09:03:23 10° NW 09:13:10 86° NE 09:22:34 10° SE visible
18 Feb - 11:09:56 10° WNW 11:17:13 25° SW 11:24:21 10° S visible
19 Feb - 00:14:47 10° SSW 00:24:20 48° SE 00:33:51 10° ENE visible
19 Feb - 02:19:15 10° WSW 02:29:17 60° NNW 02:39:11 10° NE visible
19 Feb - 04:27:31 10° WNW 04:36:13 31° N 04:44:43 10° NE visible
19 Feb - 06:35:01 10° NW 06:43:56 36° NNE 06:52:32 10° E visible
19 Feb - 08:40:18 10° NW 08:50:07 81° NE 08:59:32 10° SE visible
19 Feb - 10:46:38 10° WNW 10:54:15 28° SW 11:01:43 10° S visible
19 Feb - 23:51:55 10° SSW 00:01:18 44° SE 00:10:41 10° ENE visible
20 Feb - 01:56:05 10° WSW 02:06:09 63° NNW 02:16:08 10° NE visible
20 Feb - 04:04:13 10° WNW 04:13:00 32° N 04:21:35 10° NE visible
20 Feb - 06:11:52 10° NW 06:20:45 35° NNE 06:29:19 10° ENE night (unlit)
20 Feb - 08:17:12 10° NW 08:27:03 77° NE 08:36:28 10° SE visible
20 Feb - 10:23:21 10° WNW 10:31:17 30° SW 10:39:02 10° S visible
20 Feb - 23:29:03 10° SSW 23:38:17 41° SE 23:47:31 10° ENE daylight
21 Feb - 01:32:54 10° WSW 01:43:02 66° NW 01:53:04 10° NE visible
21 Feb - 03:40:54 10° WNW 03:49:46 33° NNW 03:58:27 10° NE visible
21 Feb - 05:48:42 10° NW 05:57:33 34° NNE 06:06:06 10° ENE night (unlit)
21 Feb - 07:54:07 10° NW 08:03:58 73° NE 08:13:25 10° ESE visible
21 Feb - 10:00:05 10° WNW 10:08:19 33° SW 10:16:20 10° S visible
21 Feb - 23:06:13 10° SSW 23:15:15 38° SE 23:24:18 10° ENE daylight
22 Feb - 01:09:45 10° WSW 01:19:54 70° NW 01:30:01 10° NE visible
22 Feb - 03:17:37 10° WNW 03:26:33 34° NNW 03:35:19 10° NE visible
22 Feb - 05:25:32 10° NW 05:34:20 33° NNE 05:42:52 10° ENE visible
22 Feb - 07:31:03 10° NW 07:40:54 69° NE 07:50:20 10° ESE visible
22 Feb - 09:36:51 10° WNW 09:45:20 36° SW 09:53:35 10° S visible
22 Feb - 22:43:25 10° S 22:52:14 35° SE 23:01:05 10° ENE daylight
23 Feb - 00:46:37 10° WSW 00:56:47 74° NW 01:06:57 10° NE visible
23 Feb - 02:54:18 10° WNW 03:03:19 34° NNW 03:12:12 10° NE visible
23 Feb - 05:02:21 10° NW 05:11:07 32° N 05:19:37 10° ENE visible
23 Feb - 07:07:57 10° NW 07:17:48 66° NE 07:27:14 10° ESE visible
23 Feb - 09:13:38 10° WNW 09:22:22 39° SW 09:30:49 10° SSE visible
23 Feb - 22:20:40 10° S 22:29:14 32° SE 22:37:50 10° ENE daylight
24 Feb - 00:23:30 10° SW 00:33:41 77° NW 00:43:52 10° NE visible
24 Feb - 02:31:00 10° W 02:40:07 35° NNW 02:49:05 10° NE visible
24 Feb - 04:39:10 10° NW 04:47:54 32° N 04:56:23 10° ENE visible
24 Feb - 06:44:52 10° NW 06:54:42 62° NNE 07:04:08 10° ESE night (unlit)
24 Feb - 08:50:27 10° WNW 08:59:22 42° SW 09:08:00 10° SSE visible
24 Feb - 21:57:56 10° S 22:06:13 30° SE 22:14:33 10° ENE daylight
25 Feb - 00:00:23 10° SW 00:10:35 82° NW 00:20:48 10° NE visible
25 Feb - 02:07:43 10° W 02:16:53 36° NNW 02:25:58 10° NE visible
25 Feb - 04:15:58 10° NW 04:24:41 31° N 04:33:09 10° ENE visible
25 Feb - 06:21:46 10° NW 06:31:36 59° NNE 06:41:01 10° ESE night (unlit)
25 Feb - 08:27:15 10° WNW 08:36:23 46° SW 08:45:12 10° SSE visible
25 Feb - 21:35:14 10° S 21:43:14 27° SE 21:51:15 10° ENE daylight
